Regional Weather Roundup
Issued by NWS

Home | Current Version | Previous Version | Graphics & Text | Print | Product List | Glossary On
Versions: 1 2 3 4 5 6 7 8 9 10 11 12 13 14 15 16 17 18 19 20 21 22 23 24 25 26 27 28 29 30 31 32 33 34 35 36 37 38 39 40 41 42 43 44 45 46 47 48 49 50
000
ASUS43 KIND 281009
RWRIN

WEATHER ROUNDUP FOR INDIANA
NATIONAL WEATHER SERVICE INDIANAPOLIS IN
600 AM EDT FRI JUL 28 2017

NOTE: "FAIR" INDICATES FEW OR NO CLOUDS BELOW 12,000 FEET WITH NO
SIGNIFICANT WEATHER AND/OR OBSTRUCTIONS TO VISIBILITY.

* - STATION DOES NOT REPORT WEATHER SUCH AS PRECIPITATION OR FOG.

+ - STATION NOT QUALITY CONTROLLED BY THE NATIONAL WEATHER SERVICE.
    USE DATA WITH CAUTION...ESPECIALLY DEWPOINT AND RELATIVE
    HUMIDITY OBSERVATIONS.

INZ001>003-010>013-019-020-281100-
NORTHWEST INDIANA

CITY           SKY/WX    TMP DP  RH WIND       PRES   REMARKS
GARY /AIRPORT/ PTCLDY    72  66  83 NE9       29.92S
KNOX *+        CLOUDY    68  64  88 NE9       29.91R
LA PORTE +     CLOUDY    66  64  93 NE6       29.93S
MICHIGAN CITY+ MOCLDY    66  64  94 CALM      29.94R
MONTICELLO +   MOCLDY    70  68  95 NE6       29.86F
RENSSELAER +   CLEAR     68  64  88 N9        29.89R
VALPARAISO     CLOUDY    70  67  90 NE6       29.92R

$$

LMZ046-743>745-281100-
SOUTHERN LAKE MICHIGAN

STATION/POSITION TIME  TEMP    WIND        PRES    WAVE
                       AIR SEA DIR/SP/G            HT
                 (UTC) (F)     (DEG/KT/KT) (MB)    (FT)
BURNS HARBOR     0940   72      70/ 13/ 17 1013.5R
MICHIGAN CITY    0940   69      70/  5/  6   N/A
5NW MICH CITY    0950   72 73   80/ 12/ 16   N/A     4

$$

INZ004-005-014>016-021>024-281100-
NORTH CENTRAL INDIANA

CITY           SKY/WX    TMP DP  RH WIND       PRES   REMARKS
GOSHEN         CLOUDY    69  60  73 N7        29.92R
LOGANSPORT +   CLOUDY    70  68  94 E8        29.88S FOG
PERU/GRISSOM   PTCLDY    71  71 100 E10       29.86F
ROCHESTER +    CLEAR     70  68  94 NE5       29.90S
SOUTH BEND     LGT RAIN  64  62  93 E8        29.94S
WARSAW +       CLOUDY    68  63  83 E6        29.91S

$$

INZ006>009-017-018-025>027-281100-
NORTHEAST INDIANA

CITY           SKY/WX    TMP DP  RH WIND       PRES   REMARKS
AUBURN +       CLEAR     64  61  88 NE7       29.92S
FORT WAYNE     MOCLDY    67  61  81 NE9       29.91R
HUNTINGTON +   MOCLDY    67  65  92 E6        29.89F
KENDALLVILLE + PTCLDY    65  62  90 NE5       29.93R

$$

INZ028-029-035-036-043>045-051>053-281100-
WEST CENTRAL INDIANA

CITY           SKY/WX    TMP DP  RH WIND       PRES   REMARKS
GREENCASTLE +  CLOUDY    68  68 100 N3        29.86R
LAFAYETTE      PTCLDY    69  68  96 N5        29.85F
TERRE HAUTE    CLEAR     69  67  93 N3        29.85R

$$

INZ030>032-037>040-046>048-054>057-064-065-281100-
CENTRAL INDIANA

CITY           SKY/WX    TMP DP  RH WIND       PRES   REMARKS
CP ATTERBURY + CLOUDY    72  70  94 CALM      29.84S FOG
FRANKFORT +    CLOUDY    72  71  97 NE5       29.88S FOG
GREENWOOD *+   CLOUDY   N/A N/A N/A CALM      29.85R
INDIANAPOLIS   MOCLDY    73  72  96 NE7       29.84R FOG
-EAGLE CREEK   CLOUDY    73  71  93 NE5       29.84S FOG
KOKOMO +       PTCLDY    70  68  93 NE12      29.88F
MT COMFORT *+  CLOUDY    72  70  94 N3        29.85S
SHELBYVILLE    CLOUDY    73  70  90 E3        29.84R FOG
ZIONSVILLE +   CLOUDY    71  70  98 NE8       29.86S FOG

$$

INZ033-034-041-042-049-050-058-059-281100-
EAST CENTRAL INDIANA

CITY           SKY/WX    TMP DP  RH WIND       PRES   REMARKS
MUNCIE         CLOUDY    72  69  90 NE7       29.88R FOG
RICHMOND +     CLOUDY    68  68 100 NE8       29.87S FOG

$$

INZ060-061-067>069-081>083-085>088-281100-
SOUTHWEST INDIANA

CITY           SKY/WX    TMP DP  RH WIND       PRES   REMARKS
EVANSVILLE     RAIN      75  73  93 N6        29.82S
HUNTINGBURG *+ CLOUDY    73  73 100 W6        29.82S FOG

$$

INZ062-063-066-070>080-084-089>092-281100-
SOUTH CENTRAL AND SOUTHEAST INDIANA

CITY           SKY/WX    TMP DP  RH WIND       PRES   REMARKS
BEDFORD +      CLOUDY    73  72  94 CALM      29.82R
BLOOMINGTON    CLOUDY    74  71  91 N6        29.83R FOG
MADISON *+       N/A     73  72  94 CALM      29.85S
NORTH VERNON + DRIZZLE   72  72 100 CALM      29.84S
SEYMOUR +      CLOUDY    75  75 100 CALM      29.82S FOG

$$





USA.gov is the U.S. government's official web portal to all federal, state and local government web resources and services.